QPF
0.00 0.00 0.00 0.00 0.00 0.00 0.00 0.00 0.00 0.00 0.00 0.00 0.00 0.00 0.00 0.00 0.00 0.00 0.00 0.00 0.00 0.00 0.00 0.00 0.00 0.00 0.00 0.00 0.00 0.00 0.00 0.00 0.00 0.00 0.00 0.00 0.00 0.00 0.00 0.00 0.00 0.00 0.00 0.00
0.00 0.00 0.00 0.00 0.00 0.00 0.00 0.00 0.00 0.00 0.00 0.00 0.00 0.00 0.00 0.00 0.00 0.00 0.00 0.00 0.00 0.00 0.00 0.00 0.00 0.00 0.00 0.00 0.00 0.00 0.00 0.00 0.00 0.00 0.00 0.00 0.00 0.00 0.00 0.00 0.00 0.00 0.00 0.00
0.00 0.00 0.00 0.00 0.00 0.00 0.00 0.00 0.00 0.00 0.00 0.00 0.00 0.00 0.00 0.00 0.00 0.00 0.00 0.00 0.00 0.00 0.00 0.00 0.00 0.00 0.00 0.00 0.00 0.00 0.00 0.00 0.00 0.00 0.00 0.00 0.00 0.00 0.00 0.00 0.00 0.00 0.00 0.00
0.00 0.00 0.00 0.00 0.00 0.00 0.00 0.00 0.00 0.00 0.00 0.00 0.00 0.00 0.00 0.00 0.00 0.00 0.00 0.00 0.00 0.00 0.00 0.00 0.00 0.00 0.00 0.00 0.00 0.00 0.00 0.00 0.00 0.00 0.00 0.00 0.00 0.00 0.00 0.00 0.00 0.00 0.00 0.00
0.00 0.00 0.00 0.00 0.00 0.00 0.00 0.00 0.00 0.00 0.00 0.00 0.00 0.00 0.00 0.00 0.00 0.00 0.00 0.00 0.00 0.00 0.00 0.00 0.00 0.00 0.00 0.00 0.00 0.00 0.00 0.00 0.00 0.00 0.00 0.00 0.00 0.00 0.00 0.00 0.00 0.00 0.00 0.00
0.00 0.00 0.00 0.00 0.00 0.00 0.00 0.00 0.00 0.00 0.00 0.00 0.00 0.00 0.00 0.00 0.00 0.00 0.00 0.00 0.00 0.00 0.00 0.00 0.00 0.00 0.00 0.00 0.00 0.00 0.00 0.00 0.00 0.00 0.00 0.00 0.00 0.00 0.00 0.00 0.00 0.00 0.00 0.00
0.00 0.00 0.00 0.00 0.00 0.00 0.00 0.00 0.00 0.00 0.00 0.00 0.00 0.00 0.00 0.00 0.00 0.00 0.00 0.00 0.00 0.00 0.00 0.00 0.00 0.00 0.00 0.00 0.00 0.00 0.00 0.00 0.00 0.00 0.00 0.00 0.00 0.00 0.00 0.00 0.00 0.00 0.00 0.00
0.00 0.00 0.00 0.00 0.00 0.00 0.00 0.00 0.00 0.00 0.00 0.00 0.00 0.00 0.00 0.00 0.00 0.00 0.00 0.00 0.00 0.00 0.00 0.00 0.00 0.00 0.00 0.00 0.00 0.00 0.00 0.00 0.00 0.00 0.00 0.00 0.00 0.00 0.00 0.00 0.00 0.00 0.00 0.00
0.00 0.00 0.00 0.00 0.00 0.00 0.00 0.00 0.00 0.00 0.00 0.00 0.00 0.00 0.00 0.00 0.00 0.00 0.00 0.00 0.00 0.00 0.00 0.00 0.00 0.00 0.00 0.00 0.00 0.00 0.00 0.00 0.00 0.00 0.00 0.00 0.00 0.00 0.00 0.00 0.00 0.00 0.00 0.00
0.00 0.00 0.00 0.00 0.00 0.00 0.00 0.00 0.00 0.00 0.00 0.00 0.00 0.00 0.00 0.00 0.00 0.00 0.00 0.00 0.00 0.00 0.00 0.00 0.00 0.00 0.00 0.00 0.00 0.00 0.00 0.00 0.00 0.00 0.00 0.00 0.00 0.00 0.00 0.00 0.01 0.01 0.00 0.00
0.00 0.00 0.00 0.00 0.00 0.00 0.00 0.00 0.00 0.00 0.00 0.00 0.00 0.00 0.00 0.00 0.00 0.00 0.00 0.00 0.00 0.00 0.00 0.00 0.00 0.00 0.00 0.00 0.00 0.00 0.00 0.00 0.00 0.00 0.00 0.00 0.00 0.00 0.00 0.01 0.01 0.01 0.00 0.01
0.00 0.00 0.00 0.00 0.00 0.00 0.00 0.00 0.00 0.00 0.00 0.00 0.00 0.00 0.00 0.00 0.00 0.00 0.00 0.00 0.00 0.00 0.00 0.00 0.00 0.00 0.00 0.00 0.00 0.00 0.00 0.00 0.00 0.00 0.00 0.00 0.00 0.00 0.00 0.00 0.01 0.01 0.01 0.01
0.00 0.00 0.00 0.00 0.00 0.00 0.00 0.00 0.00 0.00 0.00 0.00 0.00 0.00 0.00 0.00 0.00 0.00 0.00 0.00 0.00 0.00 0.00 0.00 0.00 0.00 0.00 0.00 0.00 0.00 0.00 0.00 0.00 0.00 0.00 0.00 0.00 0.00 0.00 0.00 0.00 0.00 0.01 0.01
0.00 0.00 0.00 0.00 0.00 0.00 0.00 0.00 0.00 0.00 0.00 0.00 0.00 0.00 0.00 0.00 0.00 0.00 0.00 0.00 0.00 0.00 0.00 0.00 0.00 0.00 0.00 0.00 0.00 0.00 0.00 0.00 0.00 0.00 0.00 0.00 0.00 0.00 0.00 0.00 0.00 0.00 0.01 0.01
0.00 0.00 0.00 0.00 0.00 0.00 0.00 0.00 0.00 0.00 0.00 0.00 0.00 0.00 0.00 0.00 0.00 0.00 0.00 0.00 0.00 0.00 0.00 0.00 0.00 0.00 0.00 0.00 0.00 0.00 0.00 0.00 0.00 0.00 0.00 0.00 0.00 0.00 0.00 0.00 0.00 0.00 0.01 0.02
0.00 0.00 0.00 0.00 0.00 0.00 0.00 0.00 0.00 0.00 0.00 0.00 0.00 0.00 0.00 0.00 0.00 0.00 0.00 0.00 0.00 0.00 0.00 0.00 0.00 0.00 0.00 0.00 0.00 0.00 0.00 0.00 0.00 0.00 0.00 0.00 0.00 0.00 0.00 0.00 0.00 0.00 0.00 0.01
0.00 0.00 0.00 0.00 0.00 0.00 0.00 0.00 0.00 0.00 0.00 0.00 0.00 0.00 0.00 0.00 0.00 0.00 0.00 0.00 0.01 0.00 0.00 0.00 0.00 0.00 0.00 0.00 0.00 0.00 0.00 0.00 0.00 0.00 0.00 0.00 0.00 0.00 0.00 0.00 0.00 0.00 0.00 0.01
0.00 0.00 0.00 0.00 0.00 0.00 0.00 0.00 0.00 0.00 0.00 0.00 0.00 0.00 0.00 0.00 0.00 0.00 0.00 0.01 0.01 0.00 0.00 0.00 0.00 0.00 0.00 0.00 0.00 0.00 0.00 0.00 0.00 0.00 0.00 0.00 0.00 0.00 0.00 0.00 0.00 0.00 0.00 0.01
0.00 0.00 0.00 0.00 0.00 0.00 0.00 0.00 0.00 0.00 0.00 0.00 0.00 0.00 0.00 0.00 0.00 0.00 0.02 0.01 0.01 0.00 0.00 0.00 0.00 0.00 0.00 0.00 0.00 0.00 0.00 0.00 0.00 0.00 0.00 0.00 0.00 0.00 0.00 0.00 0.00 0.00 0.00 0.00
0.00 0.00 0.00 0.00 0.00 0.00 0.00 0.00 0.00 0.00 0.00 0.00 0.00 0.00 0.00 0.00 0.00 0.01 0.03 0.01 0.00 0.00 0.00 0.00 0.00 0.00 0.00 0.00 0.00 0.00 0.00 0.00 0.00 0.00 0.00 0.00 0.00 0.00 0.00 0.00 0.00 0.00 0.00 0.00
0.00 0.00 0.00 0.00 0.00 0.00 0.00 0.00 0.00 0.00 0.00 0.00 0.00 0.00 0.00 0.00 0.01 0.01 0.01 0.00 0.00 0.00 0.00 0.00 0.00 0.00 0.00 0.00 0.00 0.00 0.00 0.00 0.00 0.00 0.00 0.00 0.00 0.00 0.00 0.00 0.00 0.00 0.00 0.00
0.00 0.00 0.00 0.00 0.00 0.00 0.00 0.00 0.00 0.00 0.00 0.00 0.00 0.00 0.00 0.00 0.00 0.00 0.00 0.00 0.00 0.00 0.00 0.00 0.00 0.00 0.00 0.00 0.00 0.00 0.00 0.00 0.00 0.00 0.00 0.00 0.00 0.00 0.00 0.00 0.00 0.00 0.00 0.00
0.00 0.00 0.00 0.00 0.00 0.00 0.00 0.00 0.00 0.00 0.00 0.00 0.00 0.00 0.00 0.00 0.00 0.00 0.00 0.00 0.00 0.00 0.00 0.00 0.00 0.00 0.00 0.00 0.00 0.00 0.00 0.00 0.00 0.00 0.00 0.00 0.00 0.00 0.00 0.00 0.00 0.00 0.00 0.00
0.00 0.00 0.00 0.00 0.00 0.00 0.00 0.00 0.00 0.00 0.00 0.00 0.00 0.00 0.00 0.00 0.00 0.00 0.00 0.00 0.00 0.00 0.00 0.00 0.00 0.00 0.00 0.00 0.00 0.00 0.00 0.00 0.00 0.00 0.00 0.00 0.00 0.00 0.00 0.00 0.00 0.00 0.00 0.01
0.00 0.00 0.00 0.00 0.00 0.00 0.00 0.00 0.00 0.00 0.00 0.00 0.00 0.00 0.00 0.00 0.00 0.00 0.00 0.00 0.00 0.00 0.00 0.00 0.00 0.00 0.00 0.00 0.00 0.00 0.00 0.00 0.00 0.00 0.00 0.00 0.00 0.00 0.00 0.00 0.00 0.00 0.00 0.01
0.00 0.00 0.00 0.00 0.00 0.00 0.00 0.00 0.00 0.00 0.00 0.00 0.00 0.00 0.00 0.00 0.00 0.00 0.00 0.00 0.00 0.00 0.00 0.00 0.00 0.00 0.00 0.00 0.00 0.00 0.00 0.00 0.00 0.00 0.00 0.00 0.00 0.00 0.00 0.00 0.00 0.00 0.00 0.00
MSLP
1021.05 1021.78 1022.36 1022.77 1023.03 1023.23 1023.48 1023.88 1024.53 1025.48 1026.70 1028.13 1029.63 1031.08 1032.31 1033.21 1033.71 1033.82 1033.59 1033.12 1032.52 1031.89 1031.32 1030.85 1030.45 1030.10 1029.72 1029.26 1028.69 1027.98 1027.15 1026.27 1025.38 1024.54 1023.81 1023.18 1022.65 1022.19 1021.74 1021.28 1020.75 1020.15 1019.48 1018.77
1022.16 1022.78 1023.23 1023.50 1023.64 1023.74 1023.92 1024.28 1024.92 1025.87 1027.10 1028.54 1030.05 1031.49 1032.72 1033.61 1034.10 1034.22 1034.01 1033.55 1032.97 1032.36 1031.80 1031.31 1030.90 1030.51 1030.11 1029.63 1029.05 1028.35 1027.57 1026.73 1025.90 1025.12 1024.42 1023.80 1023.25 1022.73 1022.21 1021.65 1021.04 1020.37 1019.65 1018.91
1023.21 1023.68 1023.97 1024.08 1024.09 1024.09 1024.19 1024.51 1025.13 1026.07 1027.29 1028.71 1030.20 1031.62 1032.82 1033.69 1034.19 1034.33 1034.16 1033.76 1033.23 1032.67 1032.15 1031.68 1031.27 1030.88 1030.47 1029.99 1029.43 1028.77 1028.03 1027.26 1026.50 1025.77 1025.09 1024.47 1023.88 1023.29 1022.68 1022.02 1021.30 1020.53 1019.74 1018.95
1024.17 1024.46 1024.57 1024.53 1024.41 1024.31 1024.35 1024.63 1025.23 1026.15 1027.35 1028.74 1030.18 1031.55 1032.71 1033.56 1034.06 1034.23 1034.11 1033.79 1033.35 1032.87 1032.42 1032.01 1031.63 1031.26 1030.87 1030.41 1029.87 1029.25 1028.57 1027.86 1027.15 1026.45 1025.79 1025.15 1024.51 1023.84 1023.13 1022.35 1021.52 1020.64 1019.76 1018.89
1025.04 1025.15 1025.08 1024.89 1024.66 1024.49 1024.49 1024.76 1025.35 1026.25 1027.42 1028.76 1030.13 1031.43 1032.53 1033.34 1033.83 1034.03 1033.97 1033.74 1033.40 1033.03 1032.67 1032.34 1032.03 1031.71 1031.34 1030.91 1030.41 1029.82 1029.18 1028.50 1027.82 1027.14 1026.47 1025.80 1025.09 1024.34 1023.52 1022.63 1021.68 1020.70 1019.72 1018.75
1025.82 1025.76 1025.53 1025.23 1024.92 1024.71 1024.71 1024.99 1025.59 1026.49 1027.62 1028.89 1030.19 1031.39 1032.41 1033.16 1033.62 1033.83 1033.83 1033.68 1033.46 1033.20 1032.96 1032.72 1032.49 1032.22 1031.90 1031.50 1031.02 1030.45 1029.83 1029.17 1028.48 1027.80 1027.09 1026.37 1025.60 1024.76 1023.85 1022.86 1021.81 1020.72 1019.64 1018.58
1026.51 1026.30 1025.97 1025.58 1025.24 1025.05 1025.08 1025.40 1026.03 1026.93 1028.03 1029.24 1030.44 1031.54 1032.44 1033.10 1033.52 1033.72 1033.75 1033.68 1033.55 1033.41 1033.27 1033.14 1032.99 1032.78 1032.51 1032.14 1031.67 1031.11 1030.48 1029.80 1029.10 1028.37 1027.63 1026.84 1026.01 1025.10 1024.10 1023.03 1021.90 1020.73 1019.56 1018.40
1027.11 1026.80 1026.40 1026.00 1025.67 1025.53 1025.63 1026.03 1026.70 1027.62 1028.69 1029.83 1030.92 1031.89 1032.67 1033.22 1033.56 1033.72 1033.76 1033.73 1033.68 1033.63 1033.60 1033.56 1033.49 1033.35 1033.11 1032.77 1032.31 1031.74 1031.09 1030.38 1029.64 1028.87 1028.07 1027.23 1026.33 1025.36 1024.31 1023.18 1021.99 1020.76 1019.51 1018.28
1027.61 1027.27 1026.86 1026.48 1026.23 1026.17 1026.37 1026.85 1027.59 1028.51 1029.55 1030.61 1031.58 1032.41 1033.05 1033.47 1033.71 1033.82 1033.84 1033.83 1033.83 1033.86 1033.90 1033.94 1033.94 1033.86 1033.66 1033.34 1032.89 1032.31 1031.64 1030.89 1030.11 1029.28 1028.43 1027.54 1026.60 1025.59 1024.50 1023.34 1022.12 1020.85 1019.55 1018.25
1028.05 1027.72 1027.36 1027.05 1026.90 1026.95 1027.26 1027.82 1028.60 1029.54 1030.53 1031.49 1032.34 1033.02 1033.51 1033.80 1033.93 1033.97 1033.96 1033.95 1033.98 1034.05 1034.16 1034.26 1034.32 1034.29 1034.13 1033.83 1033.38 1032.80 1032.11 1031.33 1030.51 1029.64 1028.75 1027.82 1026.85 1025.81 1024.71 1023.54 1022.31 1021.02 1019.71 1018.37
1028.44 1028.17 1027.90 1027.70 1027.66 1027.83 1028.23 1028.85 1029.66 1030.57 1031.49 1032.35 1033.07 1033.61 1033.95 1034.12 1034.16 1034.12 1034.07 1034.06 1034.11 1034.21 1034.37 1034.52 1034.62 1034.63 1034.50 1034.22 1033.79 1033.21 1032.51 1031.72 1030.87 1029.98 1029.05 1028.10 1027.11 1026.07 1024.97 1023.81 1022.58 1021.30 1019.98 1018.64
1028.83 1028.67 1028.51 1028.43 1028.49 1028.75 1029.21 1029.86 1030.65 1031.50 1032.33 1033.07 1033.66 1034.07 1034.29 1034.36 1034.32 1034.24 1034.17 1034.17 1034.23 1034.37 1034.55 1034.74 1034.88 1034.92 1034.82 1034.56 1034.14 1033.57 1032.87 1032.08 1031.22 1030.31 1029.38 1028.41 1027.42 1026.38 1025.29 1024.14 1022.94 1021.68 1020.38 1019.05
1029.28 1029.24 1029.19 1029.21 1029.36 1029.67 1030.14 1030.77 1031.49 1032.25 1032.96 1033.57 1034.04 1034.34 1034.48 1034.48 1034.41 1034.33 1034.27 1034.29 1034.38 1034.55 1034.77 1034.98 1035.14 1035.20 1035.12 1034.87 1034.47 1033.91 1033.22 1032.43 1031.57 1030.66 1029.72 1028.76 1027.76 1026.73 1025.66 1024.53 1023.36 1022.13 1020.86 1019.57
1029.82 1029.90 1029.96 1030.06 1030.25 1030.55 1030.99 1031.53 1032.14 1032.76 1033.34 1033.82 1034.18 1034.40 1034.49 1034.49 1034.45 1034.40 1034.40 1034.46 1034.61 1034.82 1035.06 1035.29 1035.46 1035.53 1035.45 1035.20 1034.80 1034.25 1033.56 1032.77 1031.92 1031.01 1030.08 1029.12 1028.13 1027.11 1026.05 1024.95 1023.81 1022.62 1021.39 1020.14
1030.49 1030.66 1030.80 1030.94 1031.12 1031.37 1031.71 1032.11 1032.57 1033.03 1033.46 1033.83 1034.10 1034.28 1034.38 1034.42 1034.45 1034.49 1034.57 1034.72 1034.94 1035.20 1035.47 1035.70 1035.87 1035.91 1035.82 1035.56 1035.14 1034.58 1033.89 1033.11 1032.25 1031.35 1030.42 1029.46 1028.49 1027.48 1026.44 1025.37 1024.25 1023.10 1021.93 1020.73
1031.26 1031.51 1031.68 1031.82 1031.94 1032.09 1032.29 1032.52 1032.80 1033.09 1033.38 1033.64 1033.87 1034.05 1034.20 1034.33 1034.47 1034.63 1034.84 1035.09 1035.38 1035.68 1035.97 1036.20 1036.34 1036.35 1036.22 1035.92 1035.48 1034.89 1034.19 1033.39 1032.54 1031.64 1030.71 1029.76 1028.79 1027.81 1026.79 1025.74 1024.66 1023.55 1022.42 1021.29
1032.08 1032.37 1032.55 1032.64 1032.68 1032.69 1032.72 1032.77 1032.86 1033.00 1033.16 1033.35 1033.56 1033.78 1034.02 1034.27 1034.54 1034.85 1035.18 1035.54 1035.90 1036.24 1036.53 1036.74 1036.84 1036.80 1036.61 1036.26 1035.77 1035.15 1034.42 1033.61 1032.74 1031.84 1030.92 1029.98 1029.03 1028.06 1027.07 1026.06 1025.02 1023.95 1022.87 1021.78
1032.89 1033.19 1033.33 1033.35 1033.27 1033.14 1032.99 1032.87 1032.81 1032.81 1032.89 1033.05 1033.27 1033.56 1033.91 1034.29 1034.72 1035.16 1035.61 1036.06 1036.47 1036.83 1037.10 1037.26 1037.30 1037.19 1036.93 1036.51 1035.97 1035.30 1034.54 1033.71 1032.84 1031.93 1031.02 1030.10 1029.17 1028.24 1027.29 1026.31 1025.31 1024.29 1023.25 1022.21
1033.58 1033.86 1033.95 1033.88 1033.68 1033.41 1033.12 1032.87 1032.68 1032.61 1032.65 1032.81 1033.09 1033.47 1033.93 1034.45 1035.00 1035.56 1036.10 1036.59 1037.02 1037.37 1037.60 1037.69 1037.65 1037.46 1037.13 1036.65 1036.05 1035.34 1034.55 1033.70 1032.82 1031.92 1031.02 1030.12 1029.22 1028.33 1027.42 1026.50 1025.55 1024.58 1023.59 1022.59
1034.08 1034.31 1034.34 1034.18 1033.89 1033.51 1033.13 1032.79 1032.55 1032.45 1032.50 1032.71 1033.07 1033.55 1034.13 1034.75 1035.40 1036.03 1036.61 1037.11 1037.52 1037.81 1037.97 1037.99 1037.86 1037.59 1037.18 1036.64 1035.99 1035.25 1034.44 1033.58 1032.69 1031.80 1030.92 1030.05 1029.19 1028.34 1027.49 1026.62 1025.74 1024.83 1023.89 1022.93
1034.33 1034.50 1034.46 1034.24 1033.88 1033.45 1033.03 1032.67 1032.45 1032.38 1032.50 1032.80 1033.26 1033.84 1034.51 1035.21 1035.91 1036.56 1037.13 1037.60 1037.94 1038.15 1038.21 1038.14 1037.92 1037.57 1037.10 1036.51 1035.82 1035.06 1034.23 1033.37 1032.48 1031.60 1030.74 1029.89 1029.07 1028.27 1027.48 1026.68 1025.87 1025.02 1024.14 1023.23
1034.31 1034.42 1034.33 1034.06 1033.68 1033.26 1032.86 1032.57 1032.42 1032.45 1032.68 1033.09 1033.66 1034.34 1035.07 1035.82 1036.52 1037.14 1037.65 1038.04 1038.28 1038.38 1038.34 1038.16 1037.86 1037.44 1036.91 1036.28 1035.57 1034.79 1033.96 1033.09 1032.21 1031.34 1030.49 1029.67 1028.88 1028.13 1027.39 1026.66 1025.92 1025.15 1024.35 1023.51
1034.04 1034.09 1033.97 1033.70 1033.35 1032.99 1032.68 1032.50 1032.49 1032.67 1033.04 1033.58 1034.26 1035.01 1035.80 1036.54 1037.21 1037.77 1038.18 1038.45 1038.56 1038.54 1038.38 1038.10 1037.72 1037.24 1036.66 1036.01 1035.28 1034.49 1033.65 1032.78 1031.90 1031.03 1030.18 1029.37 1028.61 1027.89 1027.20 1026.54 1025.87 1025.19 1024.48 1023.72
1033.57 1033.58 1033.45 1033.21 1032.94 1032.69 1032.52 1032.51 1032.67 1033.02 1033.55 1034.23 1035.01 1035.83 1036.62 1037.35 1037.95 1038.41 1038.70 1038.84 1038.82 1038.66 1038.39 1038.01 1037.55 1037.01 1036.41 1035.73 1034.99 1034.19 1033.34 1032.46 1031.57 1030.68 1029.82 1029.00 1028.24 1027.54 1026.90 1026.29 1025.70 1025.10 1024.48 1023.82
1032.98 1032.97 1032.85 1032.68 1032.52 1032.41 1032.43 1032.61 1032.96 1033.50 1034.19 1034.99 1035.85 1036.71 1037.50 1038.17 1038.69 1039.04 1039.21 1039.21 1039.05 1038.77 1038.39 1037.93 1037.40 1036.81 1036.17 1035.47 1034.71 1033.90 1033.03 1032.13 1031.21 1030.29 1029.40 1028.57 1027.80 1027.10 1026.47 1025.90 1025.37 1024.86 1024.34 1023.79
1032.36 1032.33 1032.25 1032.18 1032.15 1032.22 1032.43 1032.80 1033.35 1034.05 1034.89 1035.79 1036.71 1037.58 1038.35 1038.96 1039.39 1039.63 1039.68 1039.55 1039.28 1038.89 1038.42 1037.88 1037.28 1036.65 1035.97 1035.24 1034.46 1033.62 1032.72 1031.79 1030.83 1029.88 1028.95 1028.08 1027.28 1026.57 1025.95 1025.40 1024.91 1024.46 1024.03 1023.59
Thickness
5668 5656 5642 5644 5649 5653 5651 5643 5631 5618 5608 5590 5572 5554 5544 5540 5534 5525 5519 5514 5510 5505 5500 5495 5489 5483 5478 5473 5468 5464 5462 5460 5459 5459 5460 5462 5466 5469 5472 5474 5476 5479 5484 5490
5654 5645 5647 5651 5649 5649 5647 5635 5624 5609 5601 5581 5557 5543 5537 5532 5524 5514 5506 5498 5493 5492 5486 5479 5471 5461 5453 5446 5439 5435 5430 5427 5424 5422 5423 5425 5430 5436 5442 5447 5451 5454 5459 5465
5647 5647 5650 5648 5638 5638 5638 5633 5626 5611 5588 5575 5559 5538 5530 5522 5515 5505 5493 5486 5479 5475 5464 5456 5447 5436 5425 5416 5408 5401 5395 5392 5389 5387 5388 5391 5398 5403 5408 5415 5422 5427 5432 5439
5646 5647 5645 5639 5634 5631 5629 5631 5624 5613 5590 5567 5561 5527 5517 5514 5503 5492 5479 5471 5463 5454 5444 5433 5421 5409 5398 5388 5380 5374 5369 5364 5359 5354 5352 5351 5357 5364 5369 5377 5387 5396 5403 5412
5643 5642 5637 5634 5632 5629 5626 5622 5616 5609 5592 5572 5561 5533 5511 5504 5490 5477 5465 5455 5446 5435 5423 5410 5397 5384 5373 5364 5359 5353 5349 5345 5339 5333 5328 5326 5326 5328 5335 5345 5358 5370 5380 5389
5639 5641 5635 5632 5631 5626 5621 5617 5611 5595 5584 5578 5556 5536 5497 5484 5477 5463 5452 5441 5430 5418 5404 5390 5377 5364 5355 5348 5343 5338 5335 5330 5325 5320 5315 5312 5310 5311 5315 5323 5335 5348 5361 5372
5630 5633 5628 5628 5624 5619 5610 5603 5595 5591 5582 5568 5528 5508 5482 5479 5467 5454 5439 5426 5413 5399 5385 5373 5362 5352 5343 5337 5331 5326 5323 5319 5315 5310 5306 5303 5301 5301 5304 5310 5320 5331 5344 5357
5620 5619 5619 5618 5616 5610 5601 5594 5577 5568 5562 5544 5522 5493 5472 5471 5457 5443 5427 5411 5397 5383 5369 5357 5347 5338 5331 5325 5319 5314 5311 5308 5305 5301 5298 5296 5294 5295 5298 5302 5310 5320 5330 5342
5607 5612 5614 5614 5611 5609 5598 5576 5573 5550 5539 5524 5510 5480 5471 5460 5442 5427 5412 5397 5382 5369 5357 5345 5335 5327 5321 5315 5308 5302 5300 5298 5295 5293 5292 5292 5290 5290 5292 5297 5304 5311 5320 5330
5604 5600 5606 5602 5606 5594 5586 5568 5549 5545 5535 5527 5513 5473 5457 5442 5425 5413 5399 5385 5372 5358 5346 5336 5325 5317 5311 5305 5297 5292 5289 5287 5285 5284 5283 5284 5284 5285 5287 5291 5297 5303 5311 5320
5599 5593 5594 5595 5588 5580 5577 5561 5535 5512 5509 5497 5480 5479 5449 5434 5417 5399 5386 5373 5360 5347 5337 5326 5316 5307 5301 5295 5288 5283 5280 5278 5276 5275 5275 5275 5277 5278 5280 5283 5288 5295 5302 5310
5582 5575 5580 5585 5578 5569 5562 5550 5533 5521 5501 5472 5452 5455 5443 5422 5405 5387 5373 5362 5348 5337 5327 5317 5306 5298 5291 5285 5279 5273 5269 5266 5264 5263 5263 5263 5265 5267 5269 5273 5277 5283 5290 5297
5581 5574 5582 5584 5573 5556 5544 5540 5528 5502 5481 5456 5440 5446 5428 5407 5392 5379 5364 5350 5337 5329 5320 5309 5298 5289 5281 5275 5268 5262 5257 5253 5251 5249 5248 5248 5250 5252 5254 5258 5263 5268 5275 5281
5573 5565 5572 5577 5565 5542 5537 5528 5513 5489 5469 5449 5436 5431 5420 5401 5387 5377 5360 5341 5330 5322 5312 5301 5290 5279 5271 5263 5256 5250 5243 5238 5235 5232 5231 5231 5232 5233 5237 5240 5245 5251 5257 5264
5565 5559 5557 5549 5535 5535 5529 5515 5503 5485 5468 5447 5437 5421 5408 5393 5377 5362 5347 5334 5329 5316 5305 5293 5281 5270 5260 5252 5243 5237 5229 5224 5219 5215 5214 5212 5212 5214 5217 5221 5226 5231 5237 5244
5554 5552 5547 5543 5527 5524 5517 5504 5493 5480 5466 5448 5429 5413 5404 5387 5368 5355 5338 5328 5319 5306 5294 5282 5270 5258 5247 5238 5230 5222 5216 5210 5205 5200 5197 5196 5195 5196 5198 5201 5205 5210 5216 5224
5542 5544 5542 5530 5514 5518 5505 5494 5484 5473 5458 5440 5419 5408 5394 5377 5364 5345 5329 5317 5305 5294 5282 5269 5256 5244 5234 5224 5216 5209 5203 5199 5194 5190 5186 5183 5181 5180 5181 5182 5184 5189 5195 5203
5537 5533 5518 5508 5509 5521 5508 5491 5479 5465 5449 5431 5417 5402 5383 5365 5348 5333 5317 5304 5294 5283 5268 5255 5244 5233 5224 5216 5209 5202 5197 5192 5187 5182 5178 5174 5171 5168 5167 5166 5167 5170 5176 5184
5533 5525 5503 5488 5499 5497 5492 5484 5471 5457 5440 5427 5411 5395 5376 5356 5340 5327 5310 5298 5285 5270 5257 5244 5233 5224 5217 5211 5204 5198 5193 5187 5181 5177 5172 5167 5162 5158 5156 5153 5153 5155 5160 5166
5517 5508 5491 5480 5502 5504 5497 5478 5464 5445 5428 5421 5405 5386 5366 5345 5333 5321 5303 5290 5276 5261 5247 5236 5227 5220 5214 5208 5201 5194 5189 5183 5177 5172 5166 5160 5154 5149 5145 5142 5141 5142 5146 5151
5516 5499 5485 5475 5471 5477 5479 5469 5453 5432 5424 5414 5397 5378 5356 5334 5320 5309 5294 5280 5267 5253 5241 5232 5224 5217 5211 5206 5198 5191 5185 5178 5173 5166 5159 5153 5147 5142 5139 5133 5131 5132 5134 5137
5512 5494 5480 5465 5455 5470 5475 5458 5441 5432 5420 5406 5387 5367 5346 5328 5315 5301 5287 5273 5260 5247 5237 5229 5222 5216 5210 5204 5196 5189 5182 5176 5169 5161 5154 5147 5141 5136 5134 5127 5125 5124 5123 5125
5509 5506 5493 5487 5490 5483 5468 5458 5445 5428 5414 5397 5374 5356 5337 5321 5307 5294 5279 5265 5252 5242 5234 5227 5219 5213 5208 5202 5195 5187 5182 5175 5167 5158 5150 5143 5138 5131 5127 5122 5120 5117 5116 5116
5505 5500 5491 5482 5479 5474 5466 5454 5439 5422 5405 5384 5365 5345 5328 5312 5299 5284 5271 5259 5247 5239 5232 5225 5219 5213 5208 5202 5195 5187 5180 5172 5164 5156 5149 5143 5137 5131 5123 5117 5114 5111 5109 5108
5512 5492 5487 5483 5480 5473 5462 5447 5429 5408 5389 5371 5354 5336 5319 5306 5291 5277 5264 5252 5242 5236 5229 5223 5216 5212 5209 5203 5196 5188 5179 5171 5163 5156 5150 5143 5137 5129 5122 5115 5107 5104 5102 5101
5502 5496 5492 5490 5481 5464 5452 5440 5420 5400 5383 5364 5345 5326 5311 5298 5284 5271 5259 5247 5238 5232 5226 5221 5217 5214 5209 5203 5196 5188 5179 5171 5163 5158 5153 5145 5137 5128 5120 5113 5107 5100 5095 5095